This is the latest recevied weather packets stored in our database for station/object SR4DIG-13. If no packets are shown the sender has not sent any weather packets the latest 10 day(s).
| Time | Temp. | Humidity | Pressure | Rain* | Wind** | Luminosity | Snow |
|---|---|---|---|---|---|---|---|
| 1788556139 | 20.56° C | 73% | 999.1 hPa | 0 mm | - | - | - |
| 1788555838 | 21.11° C | 72% | 998.8 hPa | 0 mm | - | - | - |
| 1788555537 | 21.11° C | 72% | 998.9 hPa | 0 mm | - | - | - |
| 1788555236 | 21.11° C | 72% | 998.9 hPa | 0 mm | - | - | - |
| 1788554935 | 21.11° C | 71% | 998.7 hPa | 0 mm | - | - | - |
| 1788554634 | 21.11° C | 72% | 998.7 hPa | 0 mm | - | - | - |
| 1788554333 | 20.56° C | 72% | 998.6 hPa | 0 mm | - | - | - |
| 1788554032 | 20.56° C | 72% | 998.4 hPa | 0 mm | - | - | - |
| 1788553732 | 20.56° C | 72% | 998.6 hPa | 0 mm | - | - | - |
| 1788553431 | 20.56° C | 72% | 998.5 hPa | 0 mm | - | - | - |
| 1788553130 | 20° C | 73% | 998.6 hPa | 0 mm | - | - | - |
| 1788552828 | 20° C | 73% | 998.6 hPa | 0 mm | - | - | - |
| 1788552528 | 19.44° C | 75% | 998.8 hPa | 0 mm | - | - | - |
| 1788552227 | 19.44° C | 75% | 998.9 hPa | 0 mm | - | - | - |
| 1788551926 | 19.44° C | 74% | 999.1 hPa | 0 mm | - | - | - |
| 1788551625 | 20° C | 73% | 999.3 hPa | 0 mm | - | - | - |
| 1788551325 | 20° C | 73% | 999.4 hPa | 0 mm | - | - | - |
| 1788550889 | 20° C | 73% | 999.6 hPa | 0 mm | - | - | - |
| 1788550589 | 19.44° C | 74% | 999.7 hPa | 0 mm | - | - | - |
| 1788550242 | 18.89° C | 75% | 999.7 hPa | 0 mm | - | - | - |
| 1788549941 | 18.89° C | 76% | 999.8 hPa | 0 mm | - | - | - |
| 1788549640 | 18.33° C | 76% | 1000.1 hPa | 0 mm | - | - | - |
| 1788549339 | 18.33° C | 77% | 1000.2 hPa | 0 mm | - | - | - |
| 1788549038 | 18.33° C | 76% | 1000.3 hPa | 0 mm | - | - | - |
| 1788548737 | 18.33° C | 75% | 1000.3 hPa | 0 mm | - | - | - |
* Rain latest hour (hover to see other rain measurements)
** Current wind speed in m/s (hover to see current wind gust speed)